ROMMA est une association bénévole à but non lucratif. Votre soutien est indispensable : ADHERER à ROMMA ou FAIRE un DON

Saint-Léger-les-Mélèzes - (05, Hautes-Alpes)

Champsaur (1245 m)   Longitude: 6° 11' 42" E    Latitude: 44° 38' 38" N Station partenaire n°51
 

Détail journalier du     <<     >>

Température Precipitation Humidité Vent Dir Rafale Dir. rafale Ensol.
Heure (°C) (mm) (%) (km/h) (km/h) (min)
01:00 8.00771SO10O0
02:00 7.307905SO0
03:00 7.608005S0
04:00 7.20811S6S0
05:00 7.10821S11S0
06:00 6.40841S11SSE0
07:00 5.80872SSE11SSE0
08:00 5.80871SO11S0
09:00 7.80833SSO15S20
10:00 9.10762ONO16OSO40
11:00 9.90692NO16NO0
12:00 11.10614ONO16NNE0
13:00 12.10556NO23O20
14:00 12.105510ONO29OSO60
15:00 12.70558ONO29NO60
16:00 11.905612ONO39O50
17:00 10.706211ONO47ONO50
18:00 9.506612O50O60
19:00 8.90688ONO39SO30
20:00 7.00767S31O10
21:00 6.30796S26ONO0
22:00 5.90813SSO15SSE0
23:00 5.50821S8OSO0
minuit 4.40851ESE6SSO0

Graphique du 08-09-2019

 

Serveur OMMA